Regional Weather Roundup
Issued by NWS Kansas City/Pleasant Hill, MO

Home | Current Version | Previous Version | Text Only | Print | Product List | Glossary On
Versions: 1 2 3 4 5 6 7 8 9 10 11 12 13 14 15 16 17 18 19 20 21 22 23 24 25 26 27 28
000
ASUS43 KEAX 201110
RWREAX

WEATHER ROUNDUP FOR EASTERN KANSAS AND NORTHWEST MISSOURI
NATIONAL WEATHER SERVICE KANSAS CITY/PLEASANT HILL MO
600 AM CDT WED SEP 20 2017

KSZ040-057-103>105-MOZ028-029-037-043-201200-
...KANSAS CITY METROPOLITAN AREA...

CITY           SKY/WX    TMP DP  RH WIND       PRES   REMARKS
K.C. INTL      CLOUDY    74  70  87 S14       29.73R
K.C. DOWNTOWN  CLEAR     76  71  85 S10       29.73R
LEES SUMMIT    CLEAR     73  70  90 S15G24    29.76R
OLATHE - IXD   PTCLDY    74  70  87 S13       29.75R
OLATHE - OJC   PTCLDY    73  71  93 S13       29.75R
LAWRENCE       PTCLDY    76  71  85 S13G18    29.71R

$$

MOZ001>008-011>017-020>025-030>033-038>040-044>046-053-054-201200-
...NORTHERN AND CENTRAL MISSOURI...

CITY           SKY/WX    TMP DP  RH WIND       PRES   REMARKS
ST. JOSEPH     CLEAR     74  70  87 S9        29.72R
MOSBY          MOSUNNY   73  68  83 SE3       29.75R
WARRENSBURG    PTCLDY    72  68  88 S8        29.78R
WHITEMAN AFB   PTCLDY    72  68  87 S10       29.78R
CLINTON        CLEAR     75  70  83 S12       29.80S
SEDALIA        CLEAR     74  71  91 S14       29.81R
WARSAW         NOT AVBL
CHILLICOTHE      N/A     71  69  93 S6        29.77R
KIRKSVILLE     CLEAR     72  67  84 S10       29.80R

$$

MOZ041-047>049-056>058-063>065-088>090-097-201200-
...EASTERN AND SOUTHERN MISSOURI...

CITY           SKY/WX    TMP DP  RH WIND       PRES   REMARKS
ST. LOUIS INTL CLEAR     74  69  85 S6        29.89R
SPIRIT OF STL  CLEAR     69  68  96 E5        29.86R
COLUMBIA       CLEAR     71  68  90 S7        29.84R
JEFFERSON CITY CLEAR     71  67  87 SE6       29.82R
ROLLA          CLEAR     72  69  90 S12       29.88R
OSAGE BEACH    CLEAR     71  69  93 S10       29.85R
SPRINGFIELD    CLEAR     72  70  93 S15       29.84S
BRANSON        CLEAR     68  68 100 CALM      29.89S FOG
JOPLIN         CLEAR     75  72  90 S17       29.81R
WEST PLAINS    CLEAR     72  69  90 S6        29.92R

$$

IAZ060-094-KSZ022-034>040-054-083-096-NEZ052-066-093-201200-
...KANSAS...SOUTHEAST NEBRASKA AND IOWA...

CITY           SKY/WX    TMP DP  RH WIND       PRES   REMARKS
TOPEKA         PTCLDY    77  71  82 SW9G18    29.73R
MANHATTAN      CLEAR     73  69  87 SW6       29.69R
EMPORIA        CLEAR     73  68  84 S17       29.71R
CHANUTE        CLOUDY    76  71  85 S15       29.77R
WICHITA        PTCLDY    73  65  75 S12       29.72R
OMAHA          CLOUDY    70  60  70 N10       29.67R
LINCOLN        CLEAR     66  50  56 N13       29.71R
FALLS CITY     CLEAR     76  69  79 S8        29.68S
LAMONI         PTCLDY    71  68  90 S9        29.73R
DES MOINES     PTCLDY    74  68  81 S9        29.70R

$$





USA.gov is the U.S. government's official web portal to all federal, state and local government web resources and services.